AirNav   Pilot Hours Calculator
 
 1140 users online  

MO19 American Legion-Village of Centertown Heliport
Centertown, Missouri, USA

GOING TO CENTERTOWN?


FAA INFORMATION EFFECTIVE 03 DECEMBER 2020

Location

FAA Identifier: MO19
Lat/Long: 38-36-47.1100N 092-24-43.6700W
38-36.785167N 092-24.727833W
38.6130861,-92.4121306
(estimated)
Elevation: 805 ft. / 245 m (estimated)
Variation: 02E (2000)
Time zone: UTC -6 (UTC -5 during Daylight Saving Time)
Zip code: 65023

Heliport Operations

Heliport use: Private use. Permission required prior to landing
Activation date: 12/2000
Control tower: no
ARTCC: KANSAS CITY CENTER
FSS: COLUMBIA FLIGHT SERVICE STATION
Attendance: UNATNDD
Wind indicator: lighted
Segmented circle: no
Lights: ACTVT PERIMETER LGTS - 122.9.

Heliport Communications

WX ASOS at JEF (12 nm E): 133.625 (573-635-9266)
WX ASOS at COU (15 nm NE): 128.45 (573-499-1400)

Nearby radio navigation aids

VOR radial/distance  VOR name  Freq  Var
COUr217/14.9COLUMBIA VOR/DME110.2000E
HLVr198/32.8HALLSVILLE VORTAC114.2006E
SHYr015/35.5SUNSHINE VOR/DME108.4000E

Heliport Services

Runway Information

Helipad H1

Dimensions: 30 x 30 ft. / 9 x 9 m
Surface: concrete, in good condition
Runway edge lights: PERI
Traffic pattern: leftleft

Heliport Ownership and Management from official FAA records

Ownership: Privately-owned
Owner: AMERICAN LEGION/VILLAGE CENTERTOWN
531 STATE RT. U
CENTERTOWN, MO 65023
Phone 573-584-3844
Manager: ROBERT H. PRICE
52337 BIRD HAVEN RD
CENTERTOWN, MO 65023
Phone 573-584-3844

Additional Remarks

A52-H1 H1-25 FT TREE 190 FT SW & 39 FT TREES 260 FT SW OF HELIPAD.
FOR CD CTC MIZZOU APCH AT 417-868-5620/5619.

Instrument Procedures

There are no published instrument procedures at MO19.

Some nearby airports with instrument procedures:

KJEF - Jefferson City Memorial Airport (12 nm E)
KCOU - Columbia Regional Airport (15 nm NE)
H79 - Eldon Model Airpark (17 nm SW)
KFTT - Elton Hensley Memorial Airport (23 nm NE)
KVER - Jesse Viertel Memorial Airport (24 nm NW)
 
Loc | Ops | Rwys | IFR | FBO | Links
Com | Nav | Svcs | Stats | Notes
Area around MO19 (American Legion-Village of Centertown Heliport)
 
Road maps at: MapQuest Bing Google
 
Aerial photo
No photo
 
Sectional chart

 
Airport distance calculator
Flying to American Legion-Village of Centertown Heliport? Find the distance to fly.

From to MO19

Sunrise and sunset
Times for 04-Dec-2020
 Local
(UTC-6)
 Zulu
(UTC)
Morning civil twilight06:4412:44
Sunrise07:1313:13
Sunset16:4722:47
Evening civil twilight17:1723:17

Current date and time
Zulu (UTC)  04-Dec-2020 23:47:25
Local (UTC-6)  04-Dec-2020 17:47:25
 
METAR
KJEF 
12nm E 
042253Z 28004KT 10SM CLR 10/M02 A3004 RMK AO2 SLP164 T01001022
KCOU 
15nm NE 
042254Z 27007KT 10SM CLR 08/M03 A3003 RMK AO2 SLP174 T00831028
KVER 
24nm NW 
042335Z AUTO 00000KT 10SM CLR 10/00 A3005 RMK AO2 T00981002
TAF
KCOU 
15nm NE 
042054Z 0421/0518 27012KT P6SM SKC
NOTAMs
Click for the latest NOTAMs
NOTAMs are issued by the DoD/FAA and will open in a separate window not controlled by AirNav.

 

 
 

Would you like to see your business listed on this page?

 If your business provides an interesting product or service to pilots, flight crews, aircraft, or users of the American Legion-Village of Centertown Heliport, you should consider listing it here.  To start the listing process, click on the button below
 
Add a business
 

Other Pages about American Legion-Village of Centertown Heliport

Update a link
 
Copyright © AirNav, LLC. All rights reserved. Privacy Policy  Contact